Regional Weather Roundup
Issued by NWS Charleston, WV

Home | Current Version | Previous Version | Text Only | Print | Product List | Glossary Off
Versions: 1 2 3 4 5 6 7 8 9 10 11 12 13 14 15 16 17 18 19 20 21 22 23 24 25 26 27 28 29 30 31 32 33 34 35 36 37 38 39 40 41 42 43 44 45 46 47 48 49 50

000
ASUS41 KRLX 230510
RWRRLX
CRWRWRRLX ALL
West Virginia Regional Weather Roundup
National Weather Service Charleston WV
Issued by National Weather Service Pittsburgh PA
100 AM EDT THU MAR 23 2017

Note: "fair" indicates few or no clouds below 12,000 feet with no
significant weather and/or obstructions to visibility.

WVZ003-230600-
Northern Panhandle of West Virginia

CITY           SKY/WX    TMP DP  RH WIND       PRES   REMARKS
WHEELING       CLOUDY    23   7  50 N6        30.50R WCI  16
$$

WVZ009-230600-
Northwest West Virginia

CITY           SKY/WX    TMP DP  RH WIND       PRES   REMARKS
PARKERSBURG    CLOUDY    31   9  39 N7        30.52S WCI  24
$$

WVZ006-230600-
Western West Virginia

CITY           SKY/WX    TMP DP  RH WIND       PRES   REMARKS
HUNTINGTON     CLEAR     34  14  43 NE6       30.46F WCI  29
$$

WVZ015-230600-
West Central West Virginia

CITY           SKY/WX    TMP DP  RH WIND       PRES   REMARKS
CHARLESTON     CLOUDY    30  19  63 CALM      30.46S
$$

WVZ031-230600-
North Central West Virginia

CITY           SKY/WX    TMP DP  RH WIND       PRES   REMARKS
CLARKSBURG     PTCLDY    27   9  46 N7        30.48R WCI  19
MORGANTOWN     CLOUDY    27   7  42 N9        30.49R WCI  18
$$

WVZ035-042-230600-
South Central West Virginia

CITY           SKY/WX    TMP DP  RH WIND       PRES   REMARKS
BECKLEY        CLOUDY    26  13  57 CALM      30.39S
BLUEFIELD      CLEAR     30  11  45 E3        30.38R
$$

WVZ045-230600-
Greenbrier Valley of West Virginia

CITY           SKY/WX    TMP DP  RH WIND       PRES   REMARKS
LEWISBURG      CLOUDY    28  15  58 CALM      30.40R
$$

WVZ047-230600-
Northern Mountains of West Virginia

CITY           SKY/WX    TMP DP  RH WIND       PRES   REMARKS
ELKINS         CLOUDY    22  16  78 CALM      30.43R
$$

WVZ052-230600-
Eastern Panhandle of West Virginia

CITY           SKY/WX    TMP DP  RH WIND       PRES   REMARKS
MARTINSBURG    CLEAR     31   5  33 N7        30.48R WCI  24
PETERSBURG     PTCLDY    30  16  56 W3        30.49R
$$



USA.gov is the U.S. government's official web portal to all federal, state and local government web resources and services.